"Pseudo-MPEC" for C6PGFT2

Created 2021 Nov 30 23:07:11 UT using Find_Orb

Click here for an explanation of pseudo-MPECs

 
 Astrometry: 
     C6PGFT2  C2021 11 16.52231010 27 25.09 +24 06 54.3    ~BGD7 21.57GVNEOCPG96
     C6PGFT2  C2021 11 16.52661410 27 25.82 +24 06 54.8    ~BGD7 21.27GVNEOCPG96
     C6PGFT2  C2021 11 16.53095210 27 26.53 +24 06 55.7    ~BGD7 21.22GVNEOCPG96
     C6PGFT2  C2021 11 16.53525310 27 27.42 +24 06 56.2    ~BGD7 22.00GVNEOCPG96
     C6PGFT2 KC2021 11 17.49728710 30 19.97 +24 08 43.8    ~BHCq 21.05GVNEOCPG96
     C6PGFT2 KC2021 11 17.49907810 30 20.30 +24 08 43.7    ~BHCq 21.02GVNEOCPG96
     C6PGFT2 KC2021 11 17.50216510 30 20.83 +24 08 44.4    ~BHCq 21.17GVNEOCPG96
     C6PGFT2 KC2021 11 17.50536210 30 21.39 +24 08 44.9    ~BHCq 21.27GVNEOCPG96
     C6PGFT2 KC2021 11 18.45798810 33 11.04 +24 10 33.6    ~BIBb 21.07GVNEOCPG96
     C6PGFT2 KC2021 11 18.46120210 33 11.62 +24 10 33.3    ~BIBb 20.83GVNEOCPG96
     C6PGFT2 KC2021 11 18.46463210 33 12.20 +24 10 33.5    ~BIBb 20.94GVNEOCPG96
     C6PGFT2 KC2021 11 30.46239811 06 48.68 +24 38 34.0    ~BUBb 21.23GVNEOCPI52
     C6PGFT2 KC2021 11 30.46591711 06 49.21 +24 38 34.7    ~BUBb 20.84GVNEOCPI52
     C6PGFT2 KC2021 11 30.47292811 06 50.20 +24 38 35.2    ~BUBb 20.82GVNEOCPI52

Station data:
(G96) Mt. Lemmon Survey  (N32.442754 W110.788720)  US/Arizona.  Observers T.
   A. Pruyne, B. M. Africano, E. J. Christensen, G. A. Farneth, D. C. Fuls,
   A. R. Gibbs, A. D. Grauer, H. Gröller, J. A. Johnson, R. A. Kowalski, S.
   M. Larson, G. J. Leonard, D. Rankin, R. L. Seaman, F. C. Shelly. 1.5-m
   reflector + 10K CCD.
(I52) Steward Observatory, Mt. Lemmon Station  (N32.442547 W110.788920)
   US/Arizona.  Observers T. A. Pruyne, B. M. Africano, E. J. Christensen, G.
   A. Farneth, D. C. Fuls, A. R. Gibbs, A. D. Grauer, H. Gröller, J. A.
   Johnson, R. A. Kowalski, S. M. Larson, G. J. Leonard, D. Rankin, R. L.
   Seaman, F. C. Shelly. 1.0-m reflector + CCD.

Orbital elements:  C6PGFT2
   Perihelion 2021 Oct 12.768015 +/- 1.00626 TT = 18:25:56 (JD 2459500.268015)
Epoch 2021 Nov 30.0 TT = JDT 2459548.5   Earth MOID: 0.3997   AutoNEOCP
M  10.41173588 +/- 0.9150188        (J2000 ecliptic)
n   0.21586787 +/- 0.0150854        Peri.   11.33357 +/- 0.7191422
a   2.75218344 +/- 0.128192         Node    69.80291 +/- 0.4742844
e   0.4981933 +/- 0.019771          Incl.   17.88678 +/- 0.1351657
P   4.57                   H 18.8   G  0.15   U  9.9  
q 1.38106384 +/- 0.0105707    Q 4.12330303 +/- 0.261881
From 14 observations 2021 Nov. 16-30; mean residual 0".40
Residuals in arcseconds: 
211116 G96  .30+  .22-    211117 G96  .15+  .18-    211118 G96  .11-  .44-    
211116 G96  .15-  .23-    211117 G96  .04-  .14+    211130 I52  .63+  .23+    
211116 G96  .95-  .16+    211117 G96  .07-  .25+    211130 I52  .38+  .28+    
211116 G96  .81+  .16+    211118 G96  .06-  .50+    211130 I52  1.0-  .51-    
211117 G96  .05-  .14+    211118 G96  .17+  .21-    

Ephemerides (geocentric):
Date (UTC) HH   RA              Dec         delta   r     elong  mag " sig PA
---- -- -- --  -------------   -----------  ------ ------ -----  --- ---- ---
2021 11 30 23  11 08 06.511   +24 40 02.39  1.0831 1.4697  90.4 21.4 .714 101
2021 12 01 00  11 08 13.063   +24 40 09.76  1.0830 1.4698  90.4 21.4 .720 100
2021 12 01 01  11 08 19.611   +24 40 17.15  1.0829 1.4700  90.4 21.4 .726  98
2021 12 01 02  11 08 26.155   +24 40 24.55  1.0828 1.4701  90.4 21.4 .733  97
2021 12 01 03  11 08 32.697   +24 40 31.96  1.0827 1.4703  90.5 21.4 .739  96
2021 12 01 04  11 08 39.236   +24 40 39.38  1.0825 1.4704  90.5 21.4 .747  95
2021 12 01 05  11 08 45.771   +24 40 46.82  1.0824 1.4705  90.5 21.4 .755  94
2021 12 01 06  11 08 52.304   +24 40 54.26  1.0823 1.4707  90.5 21.4 .763  92
2021 12 01 07  11 08 58.833   +24 41 01.73  1.0822 1.4708  90.5 21.4 .771  91
2021 12 01 08  11 09 05.359   +24 41 09.20  1.0821 1.4710  90.5 21.4 .780  90
2021 12 01 09  11 09 11.882   +24 41 16.69  1.0820 1.4711  90.6 21.4 .789  89
2021 12 01 10  11 09 18.402   +24 41 24.19  1.0818 1.4713  90.6 21.4 .799  88
2021 12 01 11  11 09 24.919   +24 41 31.70  1.0817 1.4714  90.6 21.4 .808  87
2021 12 01 12  11 09 31.433   +24 41 39.22  1.0816 1.4716  90.6 21.4 .819  86
2021 12 01 13  11 09 37.943   +24 41 46.76  1.0815 1.4717  90.6 21.4 .829  85
2021 12 01 14  11 09 44.450   +24 41 54.31  1.0814 1.4718  90.7 21.4 .840  84
2021 12 01 15  11 09 50.955   +24 42 01.88  1.0813 1.4720  90.7 21.4 .851  83
2021 12 01 16  11 09 57.456   +24 42 09.45  1.0811 1.4721  90.7 21.4 .863  82
2021 12 01 17  11 10 03.954   +24 42 17.04  1.0810 1.4723  90.7 21.4 .875  81
2021 12 01 18  11 10 10.448   +24 42 24.64  1.0809 1.4724  90.7 21.4 .887  80
2021 12 01 19  11 10 16.940   +24 42 32.26  1.0808 1.4726  90.8 21.4 .899  79
2021 12 01 20  11 10 23.428   +24 42 39.89  1.0807 1.4727  90.8 21.4 .912  78
2021 12 01 21  11 10 29.914   +24 42 47.53  1.0806 1.4729  90.8 21.4 .925  77
2021 12 01 22  11 10 36.396   +24 42 55.18  1.0805 1.4730  90.8 21.4 .938  76
2021 12 01 23  11 10 42.875   +24 43 02.85  1.0803 1.4731  90.8 21.4 .952  75
2021 12 02 00  11 10 49.351   +24 43 10.53  1.0802 1.4733  90.8 21.4 .966  75
2021 12 02 01  11 10 55.823   +24 43 18.22  1.0801 1.4734  90.9 21.4 .980  74
2021 12 02 02  11 11 02.293   +24 43 25.93  1.0800 1.4736  90.9 21.4 0.99  73
2021 12 02 03  11 11 08.759   +24 43 33.65  1.0799 1.4737  90.9 21.4 1.01  72
2021 12 02 04  11 11 15.222   +24 43 41.38  1.0798 1.4739  90.9 21.4 1.02  71
2021 12 02 05  11 11 21.682   +24 43 49.13  1.0796 1.4740  90.9 21.4 1.04  71
2021 12 02 06  11 11 28.139   +24 43 56.89  1.0795 1.4742  91.0 21.4 1.06  70
2021 12 02 07  11 11 34.593   +24 44 04.66  1.0794 1.4743  91.0 21.4 1.07  69
2021 12 02 08  11 11 41.043   +24 44 12.45  1.0793 1.4744  91.0 21.4 1.09  69
2021 12 02 09  11 11 47.490   +24 44 20.25  1.0792 1.4746  91.0 21.4 1.10  68
2021 12 02 10  11 11 53.934   +24 44 28.06  1.0791 1.4747  91.0 21.4 1.12  67
2021 12 02 11  11 12 00.375   +24 44 35.88  1.0789 1.4749  91.1 21.4 1.14  67
2021 12 02 12  11 12 06.813   +24 44 43.72  1.0788 1.4750  91.1 21.4 1.16  66
2021 12 02 13  11 12 13.248   +24 44 51.58  1.0787 1.4752  91.1 21.4 1.17  65
2021 12 02 14  11 12 19.679   +24 44 59.44  1.0786 1.4753  91.1 21.4 1.19  65
2021 12 02 15  11 12 26.107   +24 45 07.32  1.0785 1.4755  91.1 21.4 1.21  64
2021 12 02 16  11 12 32.532   +24 45 15.21  1.0784 1.4756  91.1 21.4 1.23  64
2021 12 02 17  11 12 38.954   +24 45 23.12  1.0783 1.4758  91.2 21.4 1.24  63
2021 12 02 18  11 12 45.372   +24 45 31.04  1.0781 1.4759  91.2 21.4 1.26  62
2021 12 02 19  11 12 51.787   +24 45 38.97  1.0780 1.4761  91.2 21.4 1.28  62
2021 12 02 20  11 12 58.199   +24 45 46.92  1.0779 1.4762  91.2 21.4 1.30  61
2021 12 02 21  11 13 04.608   +24 45 54.88  1.0778 1.4764  91.2 21.4 1.32  61
2021 12 02 22  11 13 11.014   +24 46 02.86  1.0777 1.4765  91.3 21.4 1.34  60